Home   Weather   Valletta   Past weeks
Flag for Malta

Past Weather in Valletta, Malta — Yesterday and Last 2 Weeks

Now
77 °F

Scattered clouds.


Feels Like: 79 °F
Forecast: 77 / 67 °F
Wind: 8 mph from South

Location: Luqa

Current Time: Oct 15, 2019 at 4:18:41 pm

Latest Report: Oct 15, 2019 at 3:45 pm


Visibility: N/A

Pressure: 30.07 "Hg

Humidity: 79%

Dew Point: 70 °F

Location of VallettaLocation

Past Weather in Valletta — Graph

°F

Valletta Temperature Yesterday

Maximum temperature yesterday: 77 °F (at 2:15 pm)
Minimum temperature yesterday: 66 °F (at 4:15 am)
Average temperature yesterday: 71 °F

High & Low Weather Summary for the Past Weeks

 TemperatureHumidityPressure
High84 °F (Sep 30, 2:45 pm)100% (Oct 10, 6:15 am)30.24 "Hg (Oct 10, 6:15 am)
Low61 °F (Oct 8, 2:15 am)39% (Oct 4, 2:15 pm)29.62 "Hg (Oct 7, 8:15 pm)
Average73 °F77%29.97 "Hg
* Reported Sep 30 2:15 pm — Oct 15 2:45 pm, Valletta. Weather by CustomWeather, © 2019

Note: Actual official high and low records may vary slightly from our data, if they occured in-between our weather recording intervals... More about our weather records

Advertising

Valletta Weather History for the Previous 24 Hours

Scroll right to see more
 ConditionsComfort  
Time TempWeatherWind HumidityBarometerVisibility
2:45 pm
Tue, Oct 15
77 °FScattered clouds.7 mph79%30.07 "HgN/A
2:15 pm79 °FScattered clouds.12 mph70%30.07 "HgN/A
1:45 pm77 °FScattered clouds.9 mph74%30.09 "HgN/A
1:15 pm77 °FBroken clouds.7 mph74%30.09 "HgN/A
12:45 pm77 °FPartly sunny.9 mph74%30.09 "HgN/A
12:15 pm77 °FScattered clouds.8 mph74%30.09 "HgN/A
11:45 am77 °FScattered clouds.10 mph74%30.09 "HgN/A
11:15 am77 °FScattered clouds.12 mph74%30.09 "HgN/A
10:45 am77 °FScattered clouds.8 mph74%30.09 "HgN/A
10:15 am75 °FScattered clouds.8 mph78%30.09 "HgN/A
9:45 am75 °FPassing clouds.8 mph78%30.09 "HgN/A
9:15 am75 °FPassing clouds.6 mph78%30.09 "HgN/A
8:45 am73 °FPassing clouds.6 mph83%30.09 "HgN/A
8:15 am72 °FPassing clouds.6 mph88%30.09 "HgN/A
7:45 am72 °FPassing clouds.6 mph83%30.09 "HgN/A
7:15 am72 °FScattered clouds.7 mph83%30.09 "HgN/A
6:45 am72 °FPassing clouds.6 mph88%30.09 "HgN/A
6:15 am72 °FPassing clouds.6 mph83%30.09 "HgN/A
5:45 am72 °FPassing clouds.5 mph83%30.09 "HgN/A
5:15 am72 °FPassing clouds.6 mph83%30.09 "HgN/A
4:45 am72 °FPassing clouds.8 mph83%30.09 "HgN/A
4:15 am72 °FPassing clouds.7 mph83%30.07 "HgN/A
3:45 am72 °FPassing clouds.9 mph88%30.07 "HgN/A
3:15 am72 °FPassing clouds.8 mph88%30.09 "HgN/A
2:45 am72 °FPassing clouds.8 mph88%30.09 "HgN/A
2:15 am72 °FPassing clouds.8 mph88%30.09 "HgN/A
1:45 am70 °FPassing clouds.8 mph94%30.09 "HgN/A
1:15 am70 °FPassing clouds.9 mph94%30.09 "HgN/A
1:01 am70 °FPassing clouds.9 mph94%30.09 "HgN/A
12:15 am70 °FPassing clouds.8 mph94%30.12 "HgN/A
11:45 pm
Mon, Oct 14
70 °FPassing clouds.7 mph94%30.12 "HgN/A
11:15 pm70 °FPassing clouds.6 mph88%30.12 "HgN/A
10:45 pm70 °FPassing clouds.7 mph88%30.12 "HgN/A
10:15 pm70 °FPassing clouds.6 mph94%30.12 "HgN/A
9:45 pm70 °FPassing clouds.7 mph94%30.12 "HgN/A
9:15 pm70 °FPassing clouds.7 mph88%30.12 "HgN/A
8:45 pm70 °FPassing clouds.8 mph88%30.12 "HgN/A
8:15 pm72 °FPassing clouds.8 mph88%30.12 "HgN/A
7:45 pm72 °FPassing clouds.8 mph88%30.12 "HgN/A
7:15 pm72 °FPassing clouds.7 mph88%30.12 "HgN/A
6:45 pm72 °FPassing clouds.8 mph83%30.12 "HgN/A
6:15 pm73 °FPassing clouds.10 mph78%30.12 "HgN/A
5:45 pm73 °FScattered clouds.10 mph78%30.12 "HgN/A
5:15 pm75 °FPassing clouds.10 mph74%30.12 "HgN/A
4:45 pm75 °FScattered clouds.9 mph78%30.12 "HgN/A
4:15 pm75 °FScattered clouds.8 mph74%30.12 "HgN/A
Weather by CustomWeather, © 2019

See weather overview